Location: ??????
(38.0677°N, 22.9870°E)
Time: 17:58:31
(UTC+00:00)

SJ 16-02 - Pass Details

Date: 23 May 2024
Orbit: 594 x 606 km, 75.0° (Epoch: 24 June)

Event Time Altitude Azimuth Distance (km) Brightness Sun altitude
Exits shadow 01:40:40 20° 267° (W) 1,404 2.7 -15.4°
Maximum altitude 01:42:03 23° 295° (WNW) 1,278 2.8 -15.2°
Drops below altitude 10° 01:45:31 10° 349° (NNW) 1,934 4.3 -14.7°
Sets 01:48:08 0° 4° (N) 2,840 5.5 -14.4°
